Location: Unspecified
(49.9820°N, 20.4363°E)
Time: 12:11:16
(UTC+02:00)

ISS - Visible Passes

Search period start: 23 April 2019 00:00
Search period end: 03 May 2019 00:00
Orbit: 408 x 410 km, 51.6° (Epoch: 23 April)

Date Brightness Start Highest point End Pass type
(mag) Time Alt. Az. Time Alt. Az. Time Alt. Az.
29 Apr -1.0 04:38:45 10° SSE 04:39:39 11° SE 04:40:33 10° ESE visible
01 May -1.9 04:31:30 10° SSW 04:34:06 22° SE 04:36:43 10° E visible
02 May -1.4 03:41:39 10° S 03:43:26 14° SE 03:45:14 10° ESE visible
